FW8126 Weather Reports


Display with metric or nautical units.
time (UTC)temp
F
wind
direction
speed
MPH
gust
MPH
rain 1hr
in
rain 24hr
in
rain mn
in
humidity
%
barometer
mb
20210917062418 58 266 4.0 9.0 0.01 0.01 0.01 91 1013.8
20210917061819 58 295 4.0 9.0 0.00 0.00 0.00 90 1013.8
20210917061638 -88 286 0.0 0.0 0.00 0.00 0.00 1025.1
20210917061218 59 259 5.0 11.0 0.00 0.00 0.00 88 1013.8
20210917060618 59 279 3.0 9.0 0.00 0.00 0.00 87 1013.9
20210917060210 -88 286 0.0 1.0 0.00 0.00 0.00 1025.9
20210917060018 59 275 4.0 11.0 0.00 0.00 0.00 88 1013.8
20210917055418 59 274 5.0 8.0 0.00 0.00 0.00 87 1013.8
20210917054845 -88 287 0.0 2.0 0.00 0.00 0.00 1025.9
20210917054818 59 264 2.0 7.0 0.00 0.00 0.00 87 1013.7
20210917054218 59 264 3.0 9.0 0.00 0.00 0.00 87 1013.7
20210917053618 59 281 2.0 6.0 0.00 0.00 0.00 87 1013.7
20210917053053 -90 258 0.0 3.0 0.00 0.00 0.00 1026.0
20210917053018 59 245 3.0 8.0 0.00 0.00 0.00 87 1013.7
20210917052418 59 264 2.0 10.0 0.00 0.00 0.00 87 1013.8
20210917051818 59 273 3.0 8.0 0.00 0.00 0.00 87 1013.7
20210917051600 -90 215 0.0 13.0 0.00 0.00 0.00 1025.7
20210917051218 59 269 2.0 7.0 0.00 0.00 0.00 87 1013.8
20210917050618 59 263 2.0 4.0 0.00 0.00 0.00 87 1013.8
20210917050037 -90 240 2.0 10.0 0.00 0.00 0.00 1025.3
20210917050018 59 270 3.0 8.0 0.00 0.00 0.00 87 1013.8
20210917045418 59 273 4.0 9.0 0.00 0.00 0.00 87 1013.7
20210917044818 59 271 4.0 7.0 0.00 0.00 0.00 87 1013.7
20210917044639 -90 92 0.0 1.0 0.00 0.00 0.00 1025.5
20210917044218 59 266 2.0 8.0 0.00 0.00 0.00 87 1013.6
20210917043618 59 268 4.0 8.0 0.00 0.00 0.00 87 1013.6
20210917043144 -90 92 0.0 1.0 0.00 0.00 0.00 1026.3
20210917043018 59 269 3.0 10.0 0.00 0.00 0.00 87 1013.5
20210917042418 59 267 3.0 7.0 0.00 0.00 0.00 87 1013.5
20210917041818 59 268 2.0 6.0 0.00 0.00 0.00 87 1013.6
20210917041641 -90 92 1.0 2.0 0.00 0.00 0.00 1026.9
20210917041218 59 258 4.0 9.0 0.00 0.00 0.00 87 1013.6
20210917040618 59 266 3.0 7.0 0.00 0.00 0.00 87 1013.6
20210917040122 -90 242 2.0 4.0 0.00 0.00 0.00 1027.3
20210917040018 59 249 3.0 10.0 0.00 0.00 0.00 87 1013.6
20210917035418 59 267 3.0 8.0 0.00 0.00 0.00 87 1013.6
20210917034819 59 261 4.0 8.0 0.00 0.00 0.00 87 1013.7
20210917034538 -90 347 0.0 0.0 0.00 0.00 0.00 1026.9
20210917034219 59 259 3.0 7.0 0.00 0.00 0.00 87 1013.7
20210917033618 59 262 3.0 7.0 0.00 0.00 0.00 87 1013.7
20210917033055 -90 347 0.0 3.0 0.00 0.00 0.00 1027.5
20210917033018 59 277 2.0 7.0 0.00 0.00 0.00 87 1013.8
20210917032418 59 262 2.0 6.0 0.00 0.00 0.00 87 1013.8
20210917031842 -90 130 0.0 3.0 0.00 0.00 0.00 1027.7
20210917031819 59 260 2.0 7.0 0.00 0.00 0.00 87 1013.8
20210917031218 59 264 3.0 7.0 0.00 0.00 0.00 87 1013.9
20210917030618 59 254 3.0 7.0 0.00 0.00 0.00 87 1013.9
20210917030122 -90 238 1.0 4.0 0.00 0.00 0.00 1027.4
20210917030018 59 267 2.0 7.0 0.00 0.00 0.00 88 1014.0
20210917025418 59 266 3.0 8.0 0.00 0.00 0.00 87 1013.9
20210917024818 59 245 2.0 7.0 0.00 0.00 0.00 88 1014.0
20210917024546 -90 198 0.0 0.0 0.00 0.00 0.00 1027.2
20210917024218 59 265 2.0 7.0 0.00 0.00 0.00 88 1014.0
20210917023618 59 273 2.0 6.0 0.00 0.00 0.00 88 1014.1
20210917023058 -90 198 0.0 1.0 0.00 0.00 0.00 1027.6
20210917023018 59 267 3.0 7.0 0.00 0.00 0.00 88 1014.1
20210917022418 59 269 3.0 8.0 0.00 0.00 0.00 88 1014.1
20210917021818 59 271 4.0 8.0 0.00 0.00 0.00 88 1014.1
20210917021539 -90 196 0.0 2.0 0.00 0.00 0.00 1028.0
20210917021218 59 282 2.0 8.0 0.00 0.00 0.00 88 1014.2
20210917020618 59 260 2.0 4.0 0.00 0.00 0.00 88 1014.2
20210917020115 -90 115 0.0 3.0 0.00 0.00 0.00 1028.3
20210917020018 59 261 2.0 6.0 0.00 0.00 0.00 88 1014.2
20210917015418 59 259 3.0 7.0 0.00 0.00 0.00 88 1014.1
20210917014818 59 261 3.0 6.0 0.00 0.00 0.00 88 1014.3
20210917014548 -90 238 0.0 3.0 0.00 0.00 0.00 1027.9
20210917014218 59 241 3.0 6.0 0.00 0.00 0.00 88 1014.2
20210917013618 59 267 2.0 5.0 0.00 0.00 0.00 88 1014.3
20210917013103 -90 246 0.0 1.0 0.00 0.00 0.00 1027.6
20210917013018 59 266 2.0 6.0 0.00 0.00 0.00 88 1014.3
20210917012418 59 253 3.0 6.0 0.00 0.00 0.00 88 1014.3
20210917011818 59 245 4.0 7.0 0.00 0.00 0.00 88 1014.4
20210917011528 -90 246 0.0 2.0 0.00 0.00 0.00 1028.5
20210917011218 59 248 3.0 5.0 0.00 0.00 0.00 88 1014.4
20210917010618 59 255 2.0 4.0 0.00 0.00 0.00 88 1014.4
20210917010019 59 258 1.0 3.0 0.00 0.00 0.00 88 1014.4
20210917010012 -90 234 0.0 1.0 0.00 0.00 0.00 1028.8
20210917005418 59 256 2.0 4.0 0.00 0.00 0.00 88 1014.5
20210917004818 59 250 2.0 5.0 0.00 0.00 0.00 87 1014.5
20210917004523 -90 234 0.0 0.0 0.00 0.00 0.00 1028.9
20210917004218 59 250 1.0 4.0 0.00 0.00 0.00 87 1014.5
20210917003618 59 253 3.0 8.0 0.00 0.00 0.00 87 1014.6
20210917003118 -90 251 1.0 3.0 0.00 0.00 0.00 1028.3
20210917003018 59 258 1.0 4.0 0.00 0.00 0.00 87 1014.5
20210917002418 59 256 3.0 6.0 0.00 0.00 0.00 87 1014.6
20210917001818 59 270 2.0 4.0 0.00 0.00 0.00 87 1014.6
20210917001609 -90 250 0.0 1.0 0.00 0.00 0.00 1027.8
20210917001218 59 270 2.0 5.0 0.00 0.00 0.00 87 1014.8
20210917000618 59 269 3.0 7.0 0.00 0.00 0.00 87 1014.8
20210917000115 -90 250 0.0 0.0 0.00 0.00 0.00 1027.8
20210917000018 59 258 2.0 5.0 0.00 0.00 0.00 87 1014.7
20210916235418 59 264 3.0 7.0 0.00 0.00 0.00 86 1014.6
20210916234818 59 280 1.0 3.0 0.00 0.00 0.00 86 1014.6
20210916234530 -90 250 0.0 1.0 0.00 0.00 0.00 1028.1
20210916234218 59 270 2.0 4.0 0.00 0.00 0.00 86 1014.7
20210916233618 59 261 1.0 4.0 0.00 0.00 0.00 86 1014.6
20210916233018 59 264 2.0 5.0 0.00 0.00 0.00 86 1014.7
20210916233013 -90 250 0.0 2.0 0.00 0.00 0.00 1028.1
20210916232418 59 266 2.0 4.0 0.00 0.00 0.00 86 1014.6
20210916231818 59 275 1.0 4.0 0.00 0.00 0.00 85 1014.8
20210916231506 -90 250 1.0 4.0 0.00 0.00 0.00 1028.2
20210916231218 59 262 3.0 7.0 0.00 0.00 0.00 85 1014.9
20210916230618 59 250 2.0 5.0 0.00 0.00 0.00 85 1014.7
20210916230018 59 253 2.0 9.0 0.00 0.00 0.00 85 1014.8
20210916230002 -90 200 0.0 2.0 0.00 0.00 0.00 1027.9
20210916225418 59 262 1.0 4.0 0.00 0.00 0.00 85 1014.7
20210916224818 59 251 3.0 8.0 0.00 0.00 0.00 85 1014.8
20210916224650 -90 200 0.0 0.0 0.00 0.00 0.00 1028.3
20210916224218 59 257 3.0 9.0 0.00 0.00 0.00 85 1014.8
20210916223618 59 249 2.0 5.0 0.00 0.00 0.00 85 1014.7
20210916223307 -90 200 0.0 1.0 0.00 0.00 0.00 1028.2
20210916223018 59 254 2.0 6.0 0.00 0.00 0.00 85 1014.8
20210916222418 59 268 2.0 6.0 0.00 0.00 0.00 85 1014.7
20210916221818 59 259 2.0 5.0 0.00 0.00 0.00 85 1014.6
20210916221605 -90 200 0.0 0.0 0.00 0.00 0.00 1028.2
20210916221218 59 247 1.0 4.0 0.00 0.00 0.00 85 1014.8
20210916220618 60 265 2.0 4.0 0.00 0.00 0.00 85 1014.7
20210916220107 -90 200 0.0 2.0 0.00 0.00 0.00 1028.0
20210916220018 60 270 3.0 5.0 0.00 0.00 0.00 85 1014.8
20210916215418 60 252 1.0 4.0 0.00 0.00 0.00 85 1014.9
20210916214818 60 277 2.0 6.0 0.00 0.00 0.00 84 1014.6
20210916214542 -90 200 0.0 3.0 0.00 0.00 0.00 1028.0
20210916214218 60 256 2.0 6.0 0.00 0.00 0.00 84 1014.7
20210916213618 60 264 1.0 4.0 0.00 0.00 0.00 84 1014.7
20210916213133 -90 88 0.0 6.0 0.00 0.00 0.00 1027.8
20210916213018 60 277 3.0 7.0 0.00 0.00 0.00 84 1014.7
20210916212418 60 273 2.0 4.0 0.00 0.00 0.00 84 1014.8
20210916211818 60 271 2.0 4.0 0.00 0.00 0.00 84 1014.8
20210916211536 -90 221 0.0 1.0 0.00 0.00 0.00 1027.7
20210916211218 61 268 2.0 4.0 0.00 0.00 0.00 84 1014.8
20210916210618 61 254 2.0 4.0 0.00 0.00 0.00 83 1014.8
20210916210049 -90 221 0.0 0.0 0.00 0.00 0.00 1027.7
20210916210018 61 273 1.0 4.0 0.00 0.00 0.00 83 1014.8
20210916205418 61 271 2.0 4.0 0.00 0.00 0.00 83 1015.0
20210916204818 61 261 3.0 6.0 0.00 0.00 0.00 83 1014.9
20210916204218 61 255 2.0 4.0 0.00 0.01 0.00 83 1014.9
20210916203618 61 263 1.0 4.0 0.00 0.01 0.00 83 1014.9
20210916203025 -90 221 0.0 1.0 0.00 0.00 0.00 1027.7
20210916203018 61 253 1.0 4.0 0.00 0.01 0.00 83 1015.0
20210916202418 61 263 2.0 6.0 0.00 0.01 0.00 83 1015.0
20210916201818 61 252 2.0 7.0 0.00 0.01 0.00 83 1015.0
20210916201515 -90 226 0.0 3.0 0.00 0.00 0.00 1027.9
20210916201218 61 265 2.0 4.0 0.00 0.01 0.00 83 1015.0
20210916200618 61 245 1.0 3.0 0.00 0.01 0.00 83 1014.9
20210916200110 -90 215 0.0 3.0 0.00 0.00 0.00 1027.8
20210916200018 61 263 1.0 3.0 0.00 0.01 0.00 83 1014.9
20210916195418 61 282 1.0 3.0 0.00 0.03 0.00 83 1015.0
20210916194818 61 284 2.0 4.0 0.00 0.06 0.00 83 1015.0
20210916194632 -90 119 0.0 2.0 0.00 0.00 0.00 1027.1
20210916194218 61 254 1.0 4.0 0.00 0.06 0.00 82 1015.0
20210916193618 61 265 1.0 4.0 0.00 0.06 0.00 82 1015.0
20210916193018 61 276 1.0 3.0 0.00 0.06 0.00 82 1014.9
20210916193014 -90 132 0.0 5.0 0.00 0.00 0.00 1027.1
20210916192418 61 266 0.0 3.0 0.00 0.06 0.00 81 1015.0
20210916191818 61 262 1.0 4.0 0.00 0.06 0.00 81 1015.0
20210916191614 -90 131 1.0 6.0 0.00 0.00 0.00 1026.9
20210916191218 61 269 2.0 6.0 0.00 0.06 0.00 81 1014.8
20210916190618 61 243 1.0 6.0 0.00 0.06 0.00 81 1015.0
20210916190129 -90 134 2.0 7.0 0.00 0.00 0.00 1026.7
20210916190018 61 265 2.0 6.0 0.00 0.06 0.00 81 1014.9
20210916185418 61 269 2.0 7.0 0.00 0.06 0.00 81 1014.9
20210916184818 61 266 3.0 8.0 0.00 0.06 0.00 82 1014.8
20210916184630 -90 130 0.0 4.0 0.00 0.00 0.00 1026.9
20210916184218 60 274 3.0 6.0 0.00 0.06 0.00 82 1014.9
20210916183618 60 241 1.0 3.0 0.00 0.06 0.00 83 1014.8
20210916183056 -90 103 2.0 6.0 0.00 0.00 0.00 1027.1
20210916183018 60 254 2.0 4.0 0.00 0.06 0.00 83 1014.7
20210916182418 60 260 1.0 3.0 0.00 0.06 0.00 83 1014.9
20210916181818 60 269 1.0 2.0 0.00 0.06 0.00 83 1015.0
20210916181732 -90 186 0.0 4.0 0.00 0.00 0.00 1027.5
20210916181218 60 267 0.0 3.0 0.00 0.06 0.00 83 1014.9
20210916180618 60 260 0.0 2.0 0.00 0.06 0.00 82 1014.7
20210916180018 60 237 1.0 3.0 0.00 0.06 0.00 82 1014.6
20210916180001 -90 136 0.0 7.0 0.00 0.00 0.00 1027.7
20210916175419 60 230 1.0 2.0 0.00 0.06 0.00 82 1014.6
20210916174818 61 233 1.0 2.0 0.00 0.06 0.00 81 1014.6
20210916174720 -90 119 0.0 5.0 0.00 0.00 0.00 1027.7
20210916174217 61 217 1.0 3.0 0.00 0.06 0.00 80 1014.6
20210916173618 61 241 1.0 2.0 0.00 0.06 0.00 79 1014.6
20210916173142 -90 136 0.0 4.0 0.00 0.00 0.00 1028.0
20210916173018 62 251 0.0 2.0 0.00 0.06 0.00 78 1014.6
20210916172418 62 251 1.0 3.0 0.00 0.06 0.00 77 1014.5
20210916171818 62 263 1.0 2.0 0.00 0.06 0.00 77 1014.5
20210916171623 -90 265 0.0 2.0 0.00 0.00 0.00 1027.9
20210916171218 63 249 0.0 2.0 0.00 0.06 0.00 76 1014.5
20210916170617 63 0.0 1.0 0.00 0.06 0.00 75 1014.6
20210916170130 -90 126 0.0 4.0 0.00 0.00 0.00 1028.0
20210916170018 63 268 0.0 1.0 0.00 0.06 0.00 74 1014.5
20210916165418 64 266 1.0 2.0 0.00 0.07 0.00 73 1014.5
20210916164818 64 270 1.0 3.0 0.00 0.07 0.00 71 1014.5
20210916164621 -90 119 0.0 3.0 0.00 0.00 0.00 1028.0
20210916164217 65 276 1.0 3.0 0.00 0.07 0.00 71 1014.6
20210916163617 65 271 2.0 6.0 0.00 0.07 0.00 69 1014.6
20210916163110 -90 198 0.0 3.0 0.00 0.00 0.00 1028.2
20210916163017 66 277 2.0 5.0 0.00 0.07 0.00 68 1014.6
20210916162418 66 271 2.0 4.0 0.00 0.07 0.00 67 1014.5
20210916161818 66 266 2.0 8.0 0.00 0.07 0.00 67 1014.5
20210916161534 -90 147 0.0 5.0 0.00 0.00 0.00 1028.1
20210916161218 67 274 2.0 7.0 0.00 0.07 0.00 65 1014.4
20210916160620 67 285 2.0 7.0 0.00 0.07 0.00 67 1014.5
20210916160024 -90 200 0.0 4.0 0.00 0.00 0.00 1028.2
20210916160018 67 293 4.0 9.0 0.00 0.07 0.00 65 1014.4
20210916155418 67 278 4.0 8.0 0.00 0.08 0.00 66 1014.4
20210916154818 67 282 4.0 8.0 0.00 0.08 0.00 66 1014.3
20210916154515 -90 288 0.0 7.0 0.00 0.00 0.00 1027.8
20210916154217 67 286 4.0 8.0 0.00 0.08 0.00 66 1014.4
20210916153618 66 284 2.0 9.0 0.00 0.08 0.00 67 1014.3
20210916153128 -90 276 1.0 4.0 0.00 0.00 0.00 1028.0
20210916153019 66 291 5.0 9.0 0.00 0.08 0.00 69 1014.4
20210916152418 66 282 5.0 10.0 0.00 0.08 0.00 73 1014.4
20210916151818 66 291 4.0 7.0 0.00 0.08 0.00 72 1014.2
20210916151552 -90 123 0.0 4.0 0.00 0.00 0.00 1028.2
20210916151217 66 295 4.0 9.0 0.00 0.09 0.00 74 1014.2
20210916150618 66 298 3.0 7.0 0.00 0.09 0.00 74 1014.4
20210916150110 -90 100 1.0 4.0 0.00 0.00 0.00 1028.3
20210916150018 66 272 5.0 10.0 0.00 0.09 0.00 74 1014.3
20210916145418 67 288 6.0 10.0 0.00 0.09 0.00 74 1014.4
20210916144818 67 296 3.0 8.0 0.00 0.09 0.00 73 1014.2
20210916144534 -90 105 0.0 4.0 0.00 0.00 0.00 1028.3
20210916144218 67 279 2.0 6.0 0.00 0.09 0.00 71 1014.3
20210916143617 68 278 2.0 9.0 0.00 0.09 0.00 70 1014.2
20210916143028 -90 92 1.0 5.0 0.00 0.00 0.00 1028.4
20210916143017 68 278 4.0 10.0 0.00 0.09 0.00 71 1014.2
20210916142418 68 273 2.0 7.0 0.00 0.09 0.00 69 1014.3
20210916141818 68 261 3.0 8.0 0.00 0.09 0.00 70 1014.2
20210916141523 -90 105 1.0 7.0 0.00 0.00 0.00 1028.6
20210916141217 68 284 4.0 9.0 0.00 0.10 0.00 70 1014.1
20210916140617 68 288 4.0 7.0 0.00 0.11 0.00 72 1014.2
20210916140031 -90 132 1.0 6.0 0.00 0.00 0.00 1028.7
20210916140018 68 257 3.0 8.0 0.00 0.11 0.00 72 1014.2
20210916135417 68 255 5.0 10.0 0.00 0.11 0.00 72 1014.1
20210916134818 68 258 3.0 8.0 0.00 0.11 0.00 74 1014.1
20210916134507 -90 144 1.0 3.0 0.00 0.00 0.00 1028.9
20210916134217 67 256 5.0 9.0 0.00 0.11 0.00 75 1014.2
20210916133617 68 269 4.0 10.0 0.00 0.11 0.00 74 1014.2
20210916133126 -90 165 1.0 6.0 0.00 0.00 0.00 1028.9
20210916133017 68 272 2.0 4.0 0.00 0.11 0.00 75 1014.2
20210916132418 68 242 4.0 9.0 0.00 0.11 0.00 73 1014.2
20210916131817 68 255 2.0 5.0 0.00 0.11 0.00 77 1014.2
20210916131644 -90 141 0.0 3.0 0.00 0.00 0.00 1028.9
20210916131217 67 235 2.0 7.0 0.00 0.11 0.00 76 1014.2
20210916130618 67 234 4.0 10.0 0.00 0.11 0.00 76 1014.2
20210916130123 -90 113 0.0 2.0 0.00 0.00 0.00 1028.7
20210916130017 67 246 4.0 9.0 0.00 0.11 0.00 75 1014.4
20210916125417 67 263 3.0 8.0 0.00 0.11 0.00 75 1014.4
20210916124818 67 259 2.0 7.0 0.00 0.11 0.00 77 1014.5
20210916124622 -90 217 0.0 3.0 0.00 0.00 0.00 1029.2
20210916124217 66 250 1.0 7.0 0.00 0.12 0.00 76 1014.5
20210916123617 66 256 3.0 8.0 0.00 0.12 0.00 77 1014.5
20210916123148 -90 269 0.0 2.0 0.00 0.00 0.00 1029.0
20210916123018 66 299 3.0 8.0 0.00 0.12 0.00 78 1014.5
20210916122417 66 258 2.0 5.0 0.00 0.12 0.00 78 1014.5
20210916121818 66 300 4.0 8.0 0.00 0.12 0.00 78 1014.7
20210916121555 -90 306 0.0 2.0 0.00 0.00 0.00 1028.4
20210916121217 66 241 3.0 8.0 0.00 0.12 0.00 78 1014.7
20210916120617 66 265 2.0 6.0 0.00 0.12 0.00 78 1014.7
20210916120017 66 263 3.0 7.0 0.00 0.12 0.00 77 1014.7
20210916120001 -90 165 0.0 1.0 0.00 0.00 0.00 1028.5
20210916115417 65 269 3.0 7.0 0.00 0.12 0.00 77 1014.7
20210916114817 65 263 0.0 2.0 0.00 0.12 0.00 79 1014.7
20210916114715 -90 254 0.0 0.0 0.00 0.00 0.00 1028.3
20210916114217 65 261 1.0 4.0 0.00 0.12 0.00 79 1014.8
20210916113617 65 295 3.0 7.0 0.00 0.12 0.00 79 1014.7
20210916113058 -90 253 0.0 3.0 0.00 0.00 0.00 1028.2
20210916113017 65 237 3.0 4.0 0.00 0.12 0.00 79 1014.7
20210916112417 65 256 1.0 3.0 0.00 0.12 0.00 79 1014.6
20210916111817 65 283 1.0 6.0 0.00 0.12 0.00 78 1014.7
20210916111551 -90 250 0.0 1.0 0.00 0.00 0.00 1027.8
20210916111217 65 269 2.0 6.0 0.00 0.12 0.00 78 1014.6
20210916110617 65 289 4.0 7.0 0.00 0.12 0.00 78 1014.6
20210916110105 -90 250 0.0 1.0 0.00 0.00 0.00 1027.4
20210916110017 65 287 2.0 6.0 0.00 0.12 0.00 77 1014.6
20210916105417 66 289 4.0 7.0 0.00 0.12 0.00 77 1014.7
20210916104817 66 291 2.0 4.0 0.00 0.12 0.00 76 1014.5
20210916104545 -90 250 0.0 1.0 0.00 0.00 0.00 1027.2
20210916104217 66 296 3.0 5.0 0.00 0.12 0.00 77 1014.6
20210916103617 66 284 2.0 8.0 0.00 0.12 0.00 76 1014.7
20210916103058 -90 250 0.0 2.0 0.00 0.00 0.00 1027.2
20210916103017 66 277 4.0 7.0 0.00 0.12 0.00 76 1014.7
20210916102417 66 276 2.0 6.0 0.00 0.12 0.00 78 1014.6
20210916101817 66 279 3.0 6.0 0.00 0.12 0.00 79 1014.6
20210916101534 -90 250 0.0 1.0 0.00 0.00 0.00 1027.0
20210916101217 66 306 0.0 6.0 0.00 0.12 0.00 79 1014.7
20210916100617 65 304 2.0 5.0 0.00 0.12 0.00 79 1014.6
20210916100026 -90 250 0.0 4.0 0.00 0.00 0.00 1027.0
20210916100017 65 247 2.0 6.0 0.00 0.12 0.00 80 1014.5
20210916095417 65 284 3.0 8.0 0.00 0.12 0.00 78 1014.6
20210916094817 65 287 4.0 9.0 0.00 0.12 0.00 78 1014.5
20210916094529 -90 246 0.0 2.0 0.00 0.00 0.00 1026.8
20210916094217 65 291 4.0 8.0 0.00 0.12 0.00 78 1014.6
20210916093617 65 309 4.0 8.0 0.00 0.12 0.00 77 1014.7
20210916093018 65 274 3.0 10.0 0.00 0.12 0.00 76 1014.5
20210916093011 -90 246 0.0 3.0 0.00 0.00 0.00 1027.0
20210916092417 65 283 5.0 12.0 0.00 0.12 0.00 79 1014.6
20210916091817 65 278 3.0 9.0 0.00 0.12 0.00 80 1014.6
20210916091511 -90 252 0.0 0.0 0.00 0.00 0.00 1026.8
20210916091217 64 268 4.0 7.0 0.00 0.12 0.00 80 1014.6
20210916090617 65 289 5.0 9.0 0.00 0.12 0.00 80 1014.6
20210916090017 64 292 3.0 6.0 0.00 0.12 0.00 83 1014.6
20210916090003 -90 252 0.0 0.0 0.00 0.00 0.00 1026.5
20210916085417 64 285 2.0 4.0 0.00 0.12 0.00 82 1014.5
20210916084817 64 290 2.0 6.0 0.00 0.12 0.00 82 1014.6
20210916084638 -90 252 0.0 0.0 0.00 0.00 0.00 1026.5
20210916084217 64 293 4.0 8.0 0.00 0.12 0.00 83 1014.6
20210916083617 64 288 6.0 10.0 0.00 0.12 0.00 84 1014.6
20210916083119 -90 252 0.0 2.0 0.00 0.00 0.00 1026.2
20210916083017 65 297 3.0 8.0 0.00 0.12 0.00 85 1014.5
20210916082417 65 289 3.0 7.0 0.00 0.12 0.00 85 1014.4
20210916081817 65 279 3.0 9.0 0.00 0.12 0.00 84 1014.4
20210916081609 -90 246 0.0 2.0 0.00 0.00 0.00 1025.7
20210916081217 65 277 2.0 3.0 0.00 0.12 0.00 86 1014.4
20210916080617 65 290 6.0 9.0 0.00 0.12 0.00 84 1014.2
20210916080100 -90 246 0.0 3.0 0.00 0.00 0.00 1025.3
20210916080017 65 309 3.0 7.0 0.00 0.12 0.00 84 1014.1
20210916075417 65 290 5.0 11.0 0.00 0.12 0.00 85 1014.2
20210916074817 65 301 4.0 9.0 0.00 0.12 0.00 87 1014.1
20210916074554 -90 234 0.0 3.0 0.00 0.00 0.00 1025.3
20210916074217 65 292 2.0 5.0 0.00 0.12 0.00 88 1014.0
20210916073617 65 281 3.0 8.0 0.00 0.12 0.00 88 1013.9
20210916073046 -90 264 1.0 4.0 0.00 0.00 0.00 1025.6
20210916073017 65 300 3.0 9.0 0.00 0.12 0.00 88 1014.0
20210916072417 65 292 4.0 12.0 0.00 0.12 0.00 88 1014.0
20210916071817 64 293 2.0 4.0 0.00 0.12 0.00 91 1013.9
20210916071601 -90 182 0.0 1.0 0.00 0.00 0.00 1024.6
20210916071217 64 291 2.0 6.0 0.00 0.12 0.00 90 1013.9
20210916070617 64 284 4.0 7.0 0.00 0.12 0.00 91 1014.0
20210916070049 -90 182 0.0 0.0 0.00 0.00 0.00 1024.9
20210916070017 64 291 2.0 6.0 0.00 0.12 0.00 91 1013.7
20210916065417 65 276 2.0 4.0 0.00 0.12 0.00 92 1013.8
20210916064817 65 287 1.0 4.0 0.00 0.12 0.00 92 1013.9
20210916064531 -90 182 0.0 3.0 0.00 0.00 0.00 1025.5
20210916064217 65 254 2.0 7.0 0.00 0.12 0.00 91 1013.7
20210916063617 65 293 4.0 8.0 0.00 0.12 0.00 91 1013.6
20210916063017 65 278 4.0 8.0 0.00 0.12 0.00 92 1013.4
20210916063013 -90 180 0.0 1.0 0.00 0.00 0.00 1025.7